{"data":{"norad_id":55589,"intl_designator":"2023-020W","name":"STARLINK-5697","alt_names":[],"object_type":"PAYLOAD","status":"ACTIVE","operator":null,"country":"US","launch_date":"2023-02-12","launch_site_code":"AFETR","launch_vehicle":null,"mission":null,"orbit_class":"UNKNOWN","rcs_meters":null,"size_class":null,"mass_kg":null,"dimensions":null,"purposes":["comms"],"wikipedia_slug":null,"has_3d_model":false,"image_url":null,"decayed_at":null,"tle_current":{"epoch":"2026-05-25T03:11:17.942784Z","epoch_age_seconds":64358,"freshness":"FRESH","line1":"1 55589U 23020W   26145.13284656 -.00000009  00000+0  91991-5 0  9995","line2":"2 55589  43.0041 293.5040 0001743 281.6571  78.4086 15.27579097180604","mean_motion":15.27579097,"eccentricity":0.0001743,"inclination_deg":43.0041,"raan_deg":293.504,"arg_perigee_deg":281.6571,"mean_anomaly_deg":78.4086,"bstar":9.1991e-6,"rev_number":18060,"period_min":94.266804437689,"perigee_km":481.85589474001,"apogee_km":484.24770515567,"semimajor_km":6861.1887999478,"source":"CELESTRAK","updated_at":"2026-05-25T13:38:17.838462Z"}}}